Location: Unspecified
(0.0000°N, 0.0000°E)
Time: 07:55:42
(UTC+00:00)

Tiros 1 despin weight - Pass Details

Date: 09 October 2023
Orbit: 583 x 627 km, 48.2° (Epoch: 05 December)

Event Time Altitude Azimuth Distance (km) Brightness Sun altitude
Rises 23:35:41 0° 348° (NNW) 2,794 - -82.9°
Reaches altitude 10° 23:38:38 10° 9° (N) 1,892 - -83.2°
Maximum altitude 23:41:28 17° 50° (NE) 1,492 - -83.4°
Drops below altitude 10° 23:44:18 10° 91° (E) 1,890 - -83.5°
Sets 23:47:14 0° 112° (ESE) 2,792 - -83.5°
